Lancaster, PA

5:24 AM EST on February 21, 2017 (GMT -0500)
Lancaster

Weather History for KLNS - February, 2013

Change the Weather History Date:

Thursday, February 14, 2013

  Actual Average Record
Temperature  
Mean Temperature 36 °F -  
Max Temperature 43 °F 38 °F 61 °F (1990)
Min Temperature 28 °F 22 °F -6 °F (1979)
Degree Days  
Heating Degree Days 30    
Moisture  
Dew Point 27 °F    
Average Humidity 80    
Maximum Humidity 96    
Minimum Humidity 49    
Precipitation  
Precipitation 0.00 in - - ()
Sea Level Pressure  
Sea Level Pressure 29.91 in    
Wind  
Wind Speed 6 mph (WNW)    
Max Wind Speed 8 mph    
Max Gust Speed -    
Visibility 4 miles    
Events      
Averages and records for this station are not official NWS values.
T = Trace of Precipitation, MM = Missing Value Source: NWS Daily Summary

Daily Weather History Graph

Daily Weather History Graph

Search for Another Location

Airport or City:

Trip Planner

Search our weather history database for the weather conditions in past years. The results will help you decide how hot, cold, wet, or windy it might be!

Date:

Astronomy

Feb. 14, 2013 Rise Set
Actual Time 6:59 AM EST 5:40 PM EST
Civil Twilight 6:31 AM EST 6:07 PM EST
Nautical Twilight 5:59 AM EST 6:39 PM EST
Astronomical Twilight 5:28 AM EST 7:11 PM EST
Moon 8:59 AM EST (2/14) 10:41 PM EST (2/14)
Length of Visible Light 11h 36m
Length of Day
10h 40m
Waxing Crescent, 21% of the Moon is Illuminated
Feb 14
Waxing Crescent
Feb 17
First Quarter
Feb 25
Full
Mar 4
Last Quarter
Mar 11
New

Hourly Weather History & Observations

Time (EST) Temp. Windchill Dew Point Humidity Pressure Visibility Wind Dir Wind Speed Gust Speed Precip Events Conditions
12:15 AM 32.0 °F 26.4 °F 30.2 °F 93% 29.75 in 1.2 mi West 5.8 mph - N/A   Overcast
12:34 AM 32.0 °F 25.6 °F 30.2 °F 93% 29.75 in 1.8 mi West 6.9 mph - N/A   Overcast
12:53 AM 30.9 °F 24.3 °F 30.0 °F 96% 29.76 in 1.5 mi West 6.9 mph - N/A   Mostly Cloudy
1:05 AM 32.0 °F 25.6 °F 30.2 °F 93% 29.76 in 1.5 mi West 6.9 mph - N/A   Overcast
1:53 AM 32.0 °F 24.8 °F 30.0 °F 92% 29.80 in 1.5 mi West 8.1 mph - N/A   Overcast
2:15 AM 32.0 °F 25.6 °F 30.2 °F 93% 29.80 in 2.0 mi West 6.9 mph - N/A   Overcast
2:53 AM 30.9 °F 24.3 °F 28.9 °F 92% 29.81 in 2.5 mi WNW 6.9 mph - N/A   Mostly Cloudy
3:34 AM 30.2 °F 22.6 °F 28.4 °F 93% 29.82 in 1.8 mi WNW 8.1 mph - N/A   Partly Cloudy
3:53 AM 30.0 °F 24.1 °F 28.0 °F 92% 29.83 in 1.5 mi NW 5.8 mph - N/A   Scattered Clouds
3:57 AM 30.2 °F 25.4 °F 28.4 °F 93% 29.82 in 2.0 mi NW 4.6 mph - N/A   Mostly Cloudy
4:07 AM 33.8 °F 29.6 °F 30.2 °F 87% 29.82 in 4.0 mi WNW 4.6 mph - N/A   Mostly Cloudy
4:53 AM 33.1 °F 26.9 °F 30.0 °F 89% 29.86 in 3.0 mi West 6.9 mph - N/A   Overcast
5:53 AM 28.9 °F 25.2 °F 27.0 °F 92% 29.89 in 3.0 mi WNW 3.5 mph - N/A   Scattered Clouds
6:23 AM 28.4 °F 24.6 °F 26.6 °F 93% 29.90 in 2.5 mi West 3.5 mph - N/A   Mostly Cloudy
6:35 AM 30.2 °F 24.3 °F 26.6 °F 86% 29.90 in 3.0 mi West 5.8 mph - N/A   Mostly Cloudy
6:43 AM 28.4 °F 21.2 °F 26.6 °F 93% 29.91 in 2.5 mi WNW 6.9 mph - N/A   Scattered Clouds
6:53 AM 28.0 °F 20.0 °F 26.1 °F 92% 29.92 in 2.5 mi NW 8.1 mph - N/A   Partly Cloudy
7:06 AM 28.4 °F 20.4 °F 26.6 °F 93% 29.92 in 1.8 mi West 8.1 mph - N/A   Clear
7:18 AM 28.4 °F 22.2 °F 26.6 °F 93% 29.93 in 2.0 mi West 5.8 mph - N/A   Clear
7:53 AM 30.0 °F 23.2 °F 27.0 °F 88% 29.96 in 3.0 mi West 6.9 mph - N/A   Clear
8:53 AM 32.0 °F 24.8 °F 27.0 °F 82% 29.97 in 4.0 mi WNW 8.1 mph - N/A   Haze
9:53 AM 34.0 °F 27.2 °F 27.0 °F 75% 29.99 in 6.0 mi NW 8.1 mph - N/A   Haze
10:53 AM 35.1 °F 29.3 °F 27.0 °F 72% 30.00 in 6.0 mi NW 6.9 mph - N/A   Haze
11:53 AM - - - N/A% 29.98 in - West 8.1 mph - N/A   Unknown
12:53 PM 39.0 °F 34.0 °F 28.0 °F 65% 29.99 in - WNW 6.9 mph - N/A   Clear
1:53 PM 39.9 °F - 26.1 °F 58% 29.98 in 8.0 mi Calm Calm - N/A   Clear
2:53 PM 42.1 °F 39.2 °F 27.0 °F 55% 29.96 in 8.0 mi West 4.6 mph - N/A   Clear
3:53 PM 43.0 °F 41.3 °F 25.0 °F 49% 29.96 in 8.0 mi West 3.5 mph - N/A   Clear
4:53 PM 42.1 °F 40.2 °F 27.0 °F 55% 29.96 in 8.0 mi WNW 3.5 mph - N/A   Clear
5:53 PM 42.1 °F - 25.0 °F 51% 29.97 in 8.0 mi Calm Calm - N/A   Clear
6:53 PM 37.0 °F 34.5 °F 27.0 °F 67% 29.98 in 7.0 mi SE 3.5 mph - N/A   Clear
7:53 PM 37.0 °F 33.3 °F 25.0 °F 62% 29.99 in 8.0 mi SSE 4.6 mph - N/A   Clear
8:53 PM 34.0 °F 31.0 °F 25.0 °F 70% 30.00 in 7.0 mi East 3.5 mph - N/A   Clear
9:53 PM 35.1 °F - 25.0 °F 67% 29.99 in 7.0 mi Calm Calm - N/A   Clear
10:53 PM 34.0 °F 31.0 °F 24.1 °F 67% 29.99 in 8.0 mi South 3.5 mph - N/A   Clear
11:53 PM 34.0 °F - 26.1 °F 73% 29.97 in 7.0 mi Calm Calm - N/A   Overcast